Location: Unspecified
(40.7945°N, 0.0000°E)
Time: 08:03:41
(UTC+00:00)

deb Explorer IX - Pass Details

Date: 23 January 2021
Orbit: 537 x 1103 km, 38.8° (Epoch: 23 February)

Event Time Altitude Azimuth Distance (km) Brightness Sun altitude
Rises 18:27:40 0° 246° (WSW) 3,677 ? -15.3°
Reaches altitude 10° 18:30:32 10° 242° (WSW) 2,649 ? -15.9°
Maximum altitude 18:36:42 57° 166° (SSE) 976 ? -17.0°
Enters shadow 18:39:29 28° 99° (E) 1,439 ? -17.5°
